Wilmington, OH

8:56 PM EDT on March 24, 2017 (GMT -0400)
Airborne

Weather History for KILN - January, 2013

Change the Weather History Date:

Tuesday, January 8, 2013

  Actual Average (KFFO) Record (KFFO)
Temperature  
Mean Temperature 36 °F -  
Max Temperature 48 °F 35 °F 62 °F (2008)
Min Temperature 23 °F 20 °F -7 °F (2015)
Degree Days  
Heating Degree Days 30    
Moisture  
Dew Point 27 °F    
Average Humidity 74    
Maximum Humidity 85    
Minimum Humidity 56    
Precipitation  
Precipitation 0.00 in - - ()
Sea Level Pressure  
Sea Level Pressure 30.33 in    
Wind  
Wind Speed 6 mph (South)    
Max Wind Speed 12 mph    
Max Gust Speed -    
Visibility 9 miles    
Events      
Averages and records for this station are not official NWS values.
T = Trace of Precipitation, MM = Missing Value Source: NWS Daily Summary

Daily Weather History Graph

Daily Weather History Graph

Search for Another Location

Airport or City:

Trip Planner

Search our weather history database for the weather conditions in past years. The results will help you decide how hot, cold, wet, or windy it might be!

Date:

Astronomy

Jan. 08, 2013 Rise Set
Actual Time 7:55 AM EST 5:28 PM EST
Civil Twilight 7:25 AM EST 5:58 PM EST
Nautical Twilight 6:52 AM EST 6:32 PM EST
Astronomical Twilight 6:19 AM EST 7:04 PM EST
Moon 4:27 AM EST (1/8) 2:30 PM EST (1/8)
Length of Visible Light 10h 33m
Length of Day
9h 33m
Waning Crescent, 14% of the Moon is Illuminated
Jan 8
Waning Crescent
Jan 11
New
Jan 18
First Quarter
Jan 26
Full
Feb 3
Last Quarter

Hourly Weather History & Observations

Time (EST) Temp. Windchill Dew Point Humidity Pressure Visibility Wind Dir Wind Speed Gust Speed Precip Events Conditions
12:54 AM 23.0 °F 17.0 °F 19.0 °F 85% 30.31 in 7.0 mi SSE 4.6 mph - N/A   Clear
1:54 AM 25.0 °F 20.7 °F 19.9 °F 81% 30.29 in 7.0 mi South 3.5 mph - N/A   Clear
2:54 AM 27.0 °F 18.0 °F 21.9 °F 81% 30.30 in 9.0 mi South 9.2 mph - N/A   Clear
3:54 AM 28.0 °F 21.7 °F 21.9 °F 78% 30.31 in 9.0 mi WSW 5.8 mph - N/A   Clear
4:54 AM 28.0 °F 22.8 °F 21.9 °F 78% 30.31 in 10.0 mi SSW 4.6 mph - N/A   Clear
5:54 AM 26.1 °F 18.4 °F 21.0 °F 81% 30.34 in 9.0 mi SSW 6.9 mph - N/A   Clear
6:54 AM 27.0 °F 21.6 °F 21.9 °F 81% 30.36 in 9.0 mi SSW 4.6 mph - N/A   Clear
7:54 AM 27.0 °F 19.5 °F 21.9 °F 81% 30.37 in 8.0 mi SSW 6.9 mph - N/A   Clear
8:54 AM 30.0 °F 23.2 °F 25.0 °F 82% 30.38 in 8.0 mi South 6.9 mph - N/A   Clear
9:54 AM 34.0 °F 26.6 °F 28.0 °F 79% 30.39 in 8.0 mi South 9.2 mph - N/A   Clear
10:54 AM 37.0 °F 30.4 °F 30.0 °F 76% 30.38 in 10.0 mi SSW 9.2 mph - N/A   Clear
11:54 AM 42.1 °F 35.7 °F 32.0 °F 67% 30.37 in 10.0 mi SSW 11.5 mph - N/A   Clear
12:54 PM 44.1 °F 39.0 °F 32.0 °F 63% 30.34 in 10.0 mi SSW 9.2 mph - N/A   Clear
1:54 PM 46.0 °F 41.4 °F 33.1 °F 61% 30.31 in 10.0 mi SSW 9.2 mph - N/A   Clear
2:54 PM 48.0 °F - 34.0 °F 58% 30.32 in 10.0 mi SSW 9.2 mph - N/A   Clear
3:54 PM 48.0 °F - 33.1 °F 56% 30.32 in 10.0 mi SSW 8.1 mph - N/A   Clear
4:54 PM 44.1 °F - 33.1 °F 65% 30.33 in 10.0 mi Calm Calm - N/A   Clear
5:54 PM 39.9 °F 35.1 °F 30.9 °F 70% 30.32 in 10.0 mi SSE 6.9 mph - N/A   Clear
6:54 PM 37.9 °F 35.5 °F 30.0 °F 73% 30.33 in 10.0 mi South 3.5 mph - N/A   Clear
7:54 PM 37.0 °F 34.5 °F 30.0 °F 76% 30.33 in 10.0 mi SSE 3.5 mph - N/A   Clear
8:54 PM 37.0 °F 34.5 °F 28.9 °F 73% 30.32 in 10.0 mi SSE 3.5 mph - N/A   Clear
9:54 PM 36.0 °F 32.1 °F 28.0 °F 73% 30.31 in 10.0 mi SSE 4.6 mph - N/A   Clear